Regional Weather Roundup
Issued by NWS

Home | Current Version | Previous Version | Text Only | Print | Product List | Glossary Off
Versions: 1 2 3 4 5 6 7 8 9 10 11 12 13 14 15 16 17 18 19 20 21 22 23 24 25 26 27

000
ASUS45 KBOU 300507
RWRCO

WEATHER ROUNDUP FOR COLORADO
NATIONAL WEATHER SERVICE DENVER/BOULDER CO
1100 PM MDT MON AUG 29 2016

NOTE: "FAIR" INDICATES FEW OR NO CLOUDS BELOW 12000 FEET WITH NO
SIGNIFICANT WEATHER AND/OR OBSTRUCTIONS TO VISIBILITY.

COZ001>005-013-030-031-300600-
...NORTHWEST COLORADO...

CITY           SKY/WX    TMP DP  RH WIND       PRES   REMARKS
CRAIG          FAIR      63  38  39 E3        30.36R
HAYDEN         FAIR      63  36  36 E17       30.39R
MEEKER         FAIR      56  41  57 NE9       30.36R
MOUNT WERNER   NOT AVBL
STEAMBOAT SPGS FAIR      58  39  49 E7        30.42S
WALDEN         FAIR      50  34  53 CALM      30.53R
$$

COZ006>008-011-300600-
...WEST CENTRAL VALLEYS...

CITY           SKY/WX    TMP DP  RH WIND       PRES   REMARKS
GRAND JUNCTION FAIR      69  44  40 E8        30.25R
MONTROSE       FAIR      65  43  44 E14       30.33F
EAGLE          FAIR      55  45  67 E3        30.43R
RIFLE          FAIR      60  46  59 SW3       30.32R
DELTA          FAIR      66  46  48 CALM      30.30S
NUCLA          FAIR     N/A N/A N/A SE6       30.35S
$$

COZ017>023-064>068-300600-
...SOUTHWEST COLORADO...

CITY           SKY/WX    TMP DP  RH WIND       PRES   REMARKS
DURANGO        FAIR      54  45  71 CALM      30.37R
CORTEZ         FAIR      56  49  77 N5        30.30R
PAGOSA SPRINGS FAIR      56  40  54 CALM      30.44S
TELLURIDE      FAIR      51  42  72 CALM      30.52S
WOLF CREEK PAS FAIR      36  36 100 MISG      30.71S
$$

COZ009-010-012-014-032>034-037-058>063-300600-
...CENTRAL COLORADO...

CITY           SKY/WX    TMP DP  RH WIND       PRES   REMARKS
ASPEN          FAIR      48  43  82 S5        30.46S
BUENA VISTA    FAIR      47  44  88 CALM      30.54S
COPPER MTN     FAIR      45  30  57 S5        30.72S
BERTHOUD PASS  CLOUDY    36  23  60 E28G40    30.74S
COTTONWOOD PAS MOCLDY    50  37  62 CALM      30.62S
GUNNISON       FAIR      52  43  71 NW7       30.51R
KREMMLING      FAIR      48  39  71 CALM      30.49R
LEADVILLE      FAIR      37  35  92 CALM      30.61F
MONARCH PASS   FAIR      36  34  93 NE17      30.80R
SALIDA         FAIR      49  47  93 CALM      30.59S
SUNLIGHT       FAIR      45  37  76 SW7       30.66S
WILKERSON PASS FAIR      39  34  81 E7        30.71S
$$

COZ069>075-300600-
...SAN LUIS VALLEY/SANGRE DE CRISTO MOUNTAINS...

CITY           SKY/WX    TMP DP  RH WIND       PRES   REMARKS
ALAMOSA        FAIR      52  44  74 CALM      30.46S
LA VETA PASS   CLOUDY    45  41  87 E6        30.61S
SAGUACHE       FAIR      52  45  76 NW13      30.48S
$$

COZ035-036-038>040-300600-
...NORTHERN COLORADO FRONT RANGE...

CITY           SKY/WX    TMP DP  RH WIND       PRES   REMARKS
DENVER INTL AP MOCLDY    62  49  62 SW13      30.33F
DMNS CITY PARK   N/A     62  49  62 SW13      30.34F
AURORA         MOCLDY    61  49  66 SW9       30.36F
FRONT RANGE AP NOT AVBL
ERIE MUNI ARPT FAIR      60  52  75 W8        30.35F
BOULDER MUN AP FAIR      61  52  72 SW8       30.36F
CENTENNIAL     MOCLDY    58  49  72 SW6       30.38F
BROOMFIELD     NOT AVBL
FORT COLLINS   FAIR      61  52  72 SW7       30.33F
LONGMONT       FAIR      62  53  71 W8        30.36F
$$

COZ041-046-047-076>085-087-088-300600-
...PIKES PEAK/PALMER DIVIDE AND SOUTHERN FOOTHILLS...

CITY           SKY/WX    TMP DP  RH WIND       PRES   REMARKS
COLO. SPRINGS  MOCLDY    59  47  64 N10       30.40F
A. F. ACADEMY  FAIR      52  48  88 N9        30.41F
SCHRIEVER AFB  NOT AVBL
ELLICOTT       NOT AVBL
FALCON         FAIR      55  45  70 N9        30.44S
FORT CARSON    CLOUDY    57  49  73 NW9       30.37S
LIMON          FAIR      57  49  74 W6        30.36S
MONUMENT HILL  CLOUDY    50  45  81 W6        30.47F
TRINIDAD       FAIR      57  50  77 W12       30.39F
$$

COZ042>045-048>051-090-091-300600-
...NORTHEAST COLORADO...

CITY           SKY/WX    TMP DP  RH WIND       PRES   REMARKS
GREELEY ARPT   FAIR      63  54  72 NW6       30.31F
AKRON          FAIR      63  51  65 SW6       30.30S
BURLINGTON     FAIR      62  58  86 SE8       30.30S
WRAY           FAIR      64  59  82 SE6       30.27S
STERLING       FAIR      63  59  88 N7        30.26S
HOLYOKE        FAIR      63  61  94 S5        30.27S
FORT MORGAN    FAIR      62  51  65 NW9       30.30S
$$

COZ086-089-092>099-300600-
...SOUTHEAST COLORADO...

CITY           SKY/WX    TMP DP  RH WIND       PRES   REMARKS
PUEBLO         FAIR      64  51  62 N5        30.32S
LA JUNTA       CLOUDY    65  53  65 W5        30.28S
LAMAR          FAIR      64  59  83 SE10      30.26R
SPRINGFIELD      N/A     63  61  93 CALM      30.31R
$$




USA.gov is the U.S. government's official web portal to all federal, state and local government web resources and services.